Time,TemperatureF,DewpointF,PressureIn,WindDirection,WindDirectionDegrees,WindSpeedMPH,WindSpeedGustMPH,Humidity,HourlyPrecipIn,Conditions,Clouds,dailyrainin,SoftwareType,DateUTC
2013-09-17 00:04:00,63.2,50.4,29.59,East,101,0.0,0.0,63,0.00,,,0.00,Wunderground v.1.15,2013-09-17 07:04:00,
2013-09-17 00:14:00,62.9,50.5,29.59,East,101,0.0,0.0,64,0.00,,,0.00,Wunderground v.1.15,2013-09-17 07:14:00,
2013-09-17 00:20:00,62.8,50.4,29.59,East,101,0.0,0.0,64,0.00,,,0.00,Wunderground v.1.15,2013-09-17 07:20:00,
2013-09-17 00:25:00,62.7,50.8,29.59,East,101,0.0,0.0,65,0.00,,,0.00,Wunderground v.1.15,2013-09-17 07:25:00,
2013-09-17 00:35:00,62.4,50.9,29.59,East,90,0.0,0.0,66,0.00,,,0.00,Wunderground v.1.15,2013-09-17 07:35:00,
2013-09-17 00:45:00,62.1,50.6,29.59,East,90,0.0,0.0,66,0.00,,,0.00,Wunderground v.1.15,2013-09-17 07:45:00,
2013-09-17 00:55:00,61.8,50.3,29.59,East,90,0.0,0.0,66,0.00,,,0.00,Wunderground v.1.15,2013-09-17 07:55:00,
2013-09-17 01:05:00,61.5,50.4,29.59,East,90,0.0,0.0,67,0.00,,,0.00,Wunderground v.1.15,2013-09-17 08:05:00,
2013-09-17 01:10:00,61.3,50.6,29.59,East,90,0.0,0.0,68,0.00,,,0.00,Wunderground v.1.15,2013-09-17 08:10:00,
2013-09-17 01:20:00,61.0,50.4,29.59,East,90,0.0,0.0,68,0.00,,,0.00,Wunderground v.1.15,2013-09-17 08:20:00,
2013-09-17 01:30:00,60.7,50.5,29.59,East,90,0.0,0.0,69,0.00,,,0.00,Wunderground v.1.15,2013-09-17 08:30:00,
2013-09-17 01:39:00,60.4,50.6,29.59,East,90,0.0,0.0,70,0.00,,,0.00,Wunderground v.1.15,2013-09-17 08:39:00,
2013-09-17 01:50:00,60.1,50.7,29.59,East,90,0.0,0.0,71,0.00,,,0.00,Wunderground v.1.15,2013-09-17 08:50:00,
2013-09-17 01:59:00,59.8,50.8,29.60,East,90,0.0,0.0,72,0.00,,,0.00,Wunderground v.1.15,2013-09-17 08:59:00,
2013-09-17 02:05:00,59.7,50.7,29.60,East,90,0.0,0.0,72,0.00,,,0.00,Wunderground v.1.15,2013-09-17 09:05:00,
2013-09-17 02:15:00,59.4,50.7,29.60,East,80,0.0,0.0,73,0.00,,,0.00,Wunderground v.1.15,2013-09-17 09:15:00,
2013-09-17 02:24:00,59.0,50.4,29.59,East,80,0.0,0.0,73,0.00,,,0.00,Wunderground v.1.15,2013-09-17 09:24:00,
2013-09-17 02:34:00,59.0,50.4,29.59,East,80,0.0,0.0,73,0.00,,,0.00,Wunderground v.1.15,2013-09-17 09:34:00,
2013-09-17 02:44:00,58.8,50.2,29.60,East,80,0.0,0.0,73,0.00,,,0.00,Wunderground v.1.15,2013-09-17 09:44:00,
2013-09-17 02:54:00,58.6,50.3,29.59,East,80,0.0,0.0,74,0.00,,,0.00,Wunderground v.1.15,2013-09-17 09:54:00,
2013-09-17 02:59:00,58.5,50.2,29.59,East,80,0.0,0.0,74,0.00,,,0.00,Wunderground v.1.15,2013-09-17 09:59:00,
2013-09-17 03:04:00,58.5,50.2,29.59,East,80,0.0,0.0,74,0.00,,,0.00,Wunderground v.1.15,2013-09-17 10:04:00,
2013-09-17 03:14:00,58.5,50.2,29.59,East,80,0.0,0.0,74,0.00,,,0.00,Wunderground v.1.15,2013-09-17 10:14:00,
2013-09-17 03:19:00,58.5,49.9,29.59,East,80,0.0,0.0,73,0.00,,,0.00,Wunderground v.1.15,2013-09-17 10:19:00,
2013-09-17 03:29:00,58.5,49.9,29.59,ENE,69,0.0,0.0,73,0.00,,,0.00,Wunderground v.1.15,2013-09-17 10:29:00,
2013-09-17 03:39:00,58.5,49.9,29.59,ENE,70,0.0,0.0,73,0.00,,,0.00,Wunderground v.1.15,2013-09-17 10:39:00,
2013-09-17 03:49:00,58.4,49.8,29.59,East,93,0.0,0.0,73,0.00,,,0.00,Wunderground v.1.15,2013-09-17 10:49:00,
2013-09-17 03:59:00,58.3,50.0,29.59,East,93,0.0,0.0,74,0.00,,,0.00,Wunderground v.1.15,2013-09-17 10:59:00,
2013-09-17 04:04:00,58.2,50.0,29.59,East,93,0.0,0.0,74,0.00,,,0.00,Wunderground v.1.15,2013-09-17 11:04:00,
2013-09-17 04:14:00,58.0,49.8,29.59,East,93,0.0,0.0,74,0.00,,,0.00,Wunderground v.1.15,2013-09-17 11:14:00,
2013-09-17 04:24:00,57.8,49.6,29.59,East,93,0.0,0.0,74,0.00,,,0.00,Wunderground v.1.15,2013-09-17 11:24:00,
2013-09-17 04:34:00,57.5,49.3,29.59,East,93,0.0,0.0,74,0.00,,,0.00,Wunderground v.1.15,2013-09-17 11:34:00,
2013-09-17 04:44:00,57.3,49.4,29.60,East,93,0.0,0.0,75,0.00,,,0.00,Wunderground v.1.15,2013-09-17 11:44:00,
2013-09-17 04:54:00,57.0,49.2,29.60,East,93,0.0,0.0,75,0.00,,,0.00,Wunderground v.1.15,2013-09-17 11:54:00,
2013-09-17 05:04:00,56.7,48.9,29.60,East,93,0.0,0.0,75,0.00,,,0.00,Wunderground v.1.15,2013-09-17 12:04:00,
2013-09-17 05:15:00,56.4,48.9,29.59,East,93,0.0,0.0,76,0.00,,,0.00,Wunderground v.1.15,2013-09-17 12:15:00,
2013-09-17 05:30:00,56.2,49.1,29.60,East,97,0.0,0.0,77,0.00,,,0.00,Wunderground v.1.15,2013-09-17 12:30:00,
2013-09-17 05:40:00,56.0,48.9,29.60,East,97,0.0,0.0,77,0.00,,,0.00,Wunderground v.1.15,2013-09-17 12:40:00,
2013-09-17 05:50:00,55.9,49.1,29.60,East,97,0.0,0.0,78,0.00,,,0.00,Wunderground v.1.15,2013-09-17 12:50:00,
2013-09-17 06:00:00,55.9,49.1,29.61,East,97,0.0,0.0,78,0.00,,,0.00,Wunderground v.1.15,2013-09-17 13:00:00,
2013-09-17 06:05:00,55.9,49.1,29.61,East,97,0.0,0.0,78,0.00,,,0.00,Wunderground v.1.15,2013-09-17 13:05:00,
2013-09-17 06:15:00,55.8,49.0,29.61,East,97,0.0,0.0,78,0.00,,,0.00,Wunderground v.1.15,2013-09-17 13:15:00,
2013-09-17 06:24:00,55.7,48.9,29.61,East,97,0.0,0.0,78,0.00,,,0.00,Wunderground v.1.15,2013-09-17 13:24:00,
2013-09-17 06:35:00,55.6,48.8,29.62,ESE,112,0.0,2.0,78,0.00,,,0.00,Wunderground v.1.15,2013-09-17 13:35:00,
2013-09-17 06:44:00,55.4,48.7,29.62,ESE,112,0.0,0.0,78,0.00,,,0.00,Wunderground v.1.15,2013-09-17 13:44:00,
2013-09-17 06:55:00,55.1,48.7,29.61,ESE,112,0.0,0.0,79,0.00,,,0.00,Wunderground v.1.15,2013-09-17 13:55:00,
2013-09-17 07:05:00,55.0,48.9,29.62,ESE,112,0.0,0.0,80,0.00,,,0.00,Wunderground v.1.15,2013-09-17 14:05:00,
2013-09-17 07:14:00,55.1,49.4,29.62,ESE,112,0.0,0.0,81,0.00,,,0.00,Wunderground v.1.15,2013-09-17 14:14:00,
2013-09-17 07:19:00,55.3,49.6,29.62,ESE,113,0.0,0.0,81,0.00,,,0.00,Wunderground v.1.15,2013-09-17 14:19:00,
2013-09-17 07:29:00,56.0,49.9,29.62,ESE,113,0.0,0.0,80,0.00,,,0.00,Wunderground v.1.15,2013-09-17 14:29:00,
2013-09-17 07:39:00,56.9,50.5,29.62,West,265,0.0,1.0,79,0.00,,,0.00,Wunderground v.1.15,2013-09-17 14:39:00,
2013-09-17 07:49:00,57.7,50.5,29.62,South,191,0.0,1.0,77,0.00,,,0.00,Wunderground v.1.15,2013-09-17 14:49:00,
2013-09-17 07:59:00,58.6,50.7,29.62,South,191,0.0,0.0,75,0.00,,,0.00,Wunderground v.1.15,2013-09-17 14:59:00,
2013-09-17 08:04:00,59.0,51.1,29.63,SW,215,0.0,0.0,75,0.00,,,0.00,Wunderground v.1.15,2013-09-17 15:04:00,
2013-09-17 08:14:00,59.9,51.2,29.63,West,274,0.0,0.0,73,0.00,,,0.00,Wunderground v.1.15,2013-09-17 15:14:00,
2013-09-17 08:19:00,60.5,51.4,29.63,West,274,0.0,0.0,72,0.00,,,0.00,Wunderground v.1.15,2013-09-17 15:19:00,
2013-09-17 08:34:00,62.3,52.0,29.63,SSW,210,0.0,0.0,69,0.00,,,0.00,Wunderground v.1.15,2013-09-17 15:34:00,
2013-09-17 08:44:00,63.4,52.2,29.63,East,86,0.0,0.0,67,0.00,,,0.00,Wunderground v.1.15,2013-09-17 15:44:00,
2013-09-17 08:49:00,64.0,52.4,29.63,WSW,239,0.0,0.0,66,0.00,,,0.00,Wunderground v.1.15,2013-09-17 15:49:00,
2013-09-17 08:59:00,64.9,52.0,29.63,SW,217,0.0,0.0,63,0.00,,,0.00,Wunderground v.1.15,2013-09-17 15:59:00,
2013-09-17 09:04:00,65.3,52.4,29.63,ENE,76,0.0,0.0,63,0.00,,,0.00,Wunderground v.1.15,2013-09-17 16:04:00,
2013-09-17 09:14:00,65.9,52.5,29.63,WSW,238,0.0,1.0,62,0.00,,,0.00,Wunderground v.1.15,2013-09-17 16:14:00,
2013-09-17 09:19:00,66.3,52.9,29.63,WSW,239,0.0,1.0,62,0.00,,,0.00,Wunderground v.1.15,2013-09-17 16:19:00,
2013-09-17 09:29:00,67.2,52.8,29.63,WSW,252,0.0,0.0,60,0.00,,,0.00,Wunderground v.1.15,2013-09-17 16:29:00,
2013-09-17 09:39:00,68.1,53.2,29.63,NE,51,0.0,1.0,59,0.00,,,0.00,Wunderground v.1.15,2013-09-17 16:39:00,
2013-09-17 09:49:00,69.0,53.6,29.63,WSW,252,0.0,1.0,58,0.00,,,0.00,Wunderground v.1.15,2013-09-17 16:49:00,
2013-09-17 09:59:00,69.8,53.9,29.63,NE,48,1.0,4.0,57,0.00,,,0.00,Wunderground v.1.15,2013-09-17 16:59:00,
2013-09-17 10:04:00,70.2,54.2,29.63,ENE,64,0.0,0.0,57,0.00,,,0.00,Wunderground v.1.15,2013-09-17 17:04:00,
2013-09-17 10:14:00,71.0,53.5,29.63,WNW,298,0.0,0.0,54,0.00,,,0.00,Wunderground v.1.15,2013-09-17 17:14:00,
2013-09-17 10:19:00,71.3,53.8,29.64,WNW,285,1.0,1.0,54,0.00,,,0.00,Wunderground v.1.15,2013-09-17 17:19:00,
2013-09-17 10:29:00,71.7,53.1,29.63,West,272,1.0,2.0,52,0.00,,,0.00,Wunderground v.1.15,2013-09-17 17:29:00,
2013-09-17 10:39:00,72.4,53.2,29.64,North,350,0.0,1.0,51,0.00,,,0.00,Wunderground v.1.15,2013-09-17 17:39:00,
2013-09-17 10:44:00,72.8,53.1,29.64,WNW,282,1.0,1.0,50,0.00,,,0.00,Wunderground v.1.15,2013-09-17 17:44:00,
2013-09-17 10:54:00,73.5,53.2,29.64,West,262,1.0,1.0,49,0.00,,,0.00,Wunderground v.1.15,2013-09-17 17:54:00,
2013-09-17 11:04:00,73.8,52.9,29.63,West,278,1.0,1.0,48,0.00,,,0.00,Wunderground v.1.15,2013-09-17 18:04:00,
2013-09-17 11:15:00,74.2,52.7,29.63,West,277,1.0,1.0,47,0.00,,,0.00,Wunderground v.1.15,2013-09-17 18:15:00,
2013-09-17 11:25:00,74.9,53.3,29.63,WNW,284,0.0,0.0,47,0.00,,,0.00,Wunderground v.1.15,2013-09-17 18:25:00,
2013-09-17 11:35:00,75.9,53.0,29.63,West,260,1.0,5.0,45,0.00,,,0.00,Wunderground v.1.15,2013-09-17 18:35:00,
2013-09-17 11:40:00,76.2,52.7,29.63,WSW,248,1.0,5.0,44,0.00,,,0.00,Wunderground v.1.15,2013-09-17 18:40:00,
2013-09-17 11:50:00,76.8,52.6,29.63,WNW,298,1.0,2.0,43,0.00,,,0.00,Wunderground v.1.15,2013-09-17 18:50:00,
2013-09-17 12:00:00,76.9,52.1,29.63,West,265,1.0,1.0,42,0.00,,,0.00,Wunderground v.1.15,2013-09-17 19:00:00,
2013-09-17 12:05:00,76.8,52.0,29.63,West,274,1.0,1.0,42,0.00,,,0.00,Wunderground v.1.15,2013-09-17 19:05:00,
2013-09-17 12:15:00,77.3,51.8,29.62,West,280,0.0,1.0,41,0.00,,,0.00,Wunderground v.1.15,2013-09-17 19:15:00,
2013-09-17 12:24:00,77.9,51.6,29.62,NNE,31,0.0,0.0,40,0.00,,,0.00,Wunderground v.1.15,2013-09-17 19:24:00,
2013-09-17 12:30:00,78.2,52.6,29.62,WSW,257,1.0,2.0,41,0.00,,,0.00,Wunderground v.1.15,2013-09-17 19:30:00,
2013-09-17 12:39:00,78.6,52.3,29.62,WNW,297,1.0,1.0,40,0.00,,,0.00,Wunderground v.1.15,2013-09-17 19:39:00,
2013-09-17 12:50:00,78.8,52.4,29.62,West,269,0.0,0.0,40,0.00,,,0.00,Wunderground v.1.15,2013-09-17 19:50:00,
2013-09-17 12:59:00,79.1,52.0,29.62,East,82,1.0,1.0,39,0.00,,,0.00,Wunderground v.1.15,2013-09-17 19:59:00,
2013-09-17 13:09:00,79.5,52.4,29.62,East,92,1.0,3.0,39,0.00,,,0.00,Wunderground v.1.15,2013-09-17 20:09:00,
2013-09-17 13:20:00,80.3,52.4,29.62,North,360,1.0,2.0,38,0.00,,,0.00,Wunderground v.1.15,2013-09-17 20:20:00,
2013-09-17 13:29:00,80.8,52.8,29.62,NNE,23,1.0,4.0,38,0.00,,,0.00,Wunderground v.1.15,2013-09-17 20:29:00,
2013-09-17 13:39:00,80.8,52.8,29.61,NE,50,1.0,2.0,38,0.00,,,0.00,Wunderground v.1.15,2013-09-17 20:39:00,
2013-09-17 13:49:00,80.4,53.2,29.62,NE,55,1.0,2.0,39,0.00,,,0.00,Wunderground v.1.15,2013-09-17 20:49:00,
2013-09-17 14:04:00,78.7,52.3,29.62,WNW,282,1.0,1.0,40,0.00,,,0.00,Wunderground v.1.15,2013-09-17 21:04:00,
2013-09-17 14:09:00,78.6,52.9,29.62,WSW,253,1.0,1.0,41,0.00,,,0.00,Wunderground v.1.15,2013-09-17 21:09:00,
2013-09-17 14:19:00,78.1,53.1,29.62,NE,55,1.0,1.0,42,0.00,,,0.00,Wunderground v.1.15,2013-09-17 21:19:00,
2013-09-17 14:29:00,77.6,53.3,29.61,NW,306,1.0,1.0,43,0.00,,,0.00,Wunderground v.1.15,2013-09-17 21:29:00,
2013-09-17 14:34:00,77.2,53.0,29.61,West,270,1.0,1.0,43,0.00,,,0.00,Wunderground v.1.15,2013-09-17 21:34:00,
2013-09-17 14:44:00,76.4,52.2,29.61,NW,320,1.0,1.0,43,0.00,,,0.00,Wunderground v.1.15,2013-09-17 21:44:00,
2013-09-17 14:54:00,76.0,52.5,29.61,West,267,1.0,1.0,44,0.00,,,0.00,Wunderground v.1.15,2013-09-17 21:54:00,
2013-09-17 15:04:00,75.5,53.3,29.61,SW,220,1.0,1.0,46,0.00,,,0.00,Wunderground v.1.15,2013-09-17 22:04:00,
2013-09-17 15:14:00,75.0,52.8,29.61,WNW,288,1.0,2.0,46,0.00,,,0.00,Wunderground v.1.15,2013-09-17 22:14:00,
2013-09-17 15:24:00,74.7,53.1,29.61,West,273,1.0,1.0,47,0.00,,,0.00,Wunderground v.1.15,2013-09-17 22:24:00,
2013-09-17 15:29:00,74.6,53.0,29.61,WNW,296,1.0,1.0,47,0.00,,,0.00,Wunderground v.1.15,2013-09-17 22:29:00,
2013-09-17 15:39:00,74.4,52.9,29.61,West,280,1.0,1.0,47,0.00,,,0.00,Wunderground v.1.15,2013-09-17 22:39:00,
2013-09-17 15:54:00,74.3,52.8,29.61,South,182,1.0,1.0,47,0.00,,,0.00,Wunderground v.1.15,2013-09-17 22:54:00,
2013-09-17 16:09:00,74.2,53.2,29.61,ENE,69,0.0,1.0,48,0.00,,,0.00,Wunderground v.1.15,2013-09-17 23:09:00,
2013-09-17 16:19:00,74.1,53.2,29.61,SSW,210,1.0,3.0,48,0.00,,,0.00,Wunderground v.1.15,2013-09-17 23:19:00,
2013-09-17 16:29:00,74.1,53.2,29.61,SW,227,0.0,1.0,48,0.00,,,0.00,Wunderground v.1.15,2013-09-17 23:29:00,
2013-09-17 16:39:00,74.0,53.1,29.61,WNW,291,1.0,2.0,48,0.00,,,0.00,Wunderground v.1.15,2013-09-17 23:39:00,
2013-09-17 16:49:00,73.8,52.9,29.61,NE,46,1.0,1.0,48,0.00,,,0.00,Wunderground v.1.15,2013-09-17 23:49:00,
2013-09-17 16:59:00,73.6,52.7,29.61,ESE,103,1.0,1.0,48,0.00,,,0.00,Wunderground v.1.15,2013-09-17 23:59:00,
2013-09-17 17:04:00,73.5,52.6,29.61,WNW,288,1.0,1.0,48,0.00,,,0.00,Wunderground v.1.15,2013-09-18 00:04:00,
2013-09-17 17:15:00,73.2,52.3,29.61,SSW,202,1.0,1.0,48,0.00,,,0.00,Wunderground v.1.15,2013-09-18 00:15:00,
2013-09-17 17:25:00,72.9,52.1,29.61,WNW,285,0.0,2.0,48,0.00,,,0.00,Wunderground v.1.15,2013-09-18 00:25:00,
2013-09-17 17:35:00,72.6,51.8,29.61,West,278,1.0,1.0,48,0.00,,,0.00,Wunderground v.1.15,2013-09-18 00:35:00,
2013-09-17 17:45:00,72.3,51.5,29.62,West,277,1.0,1.0,48,0.00,,,0.00,Wunderground v.1.15,2013-09-18 00:45:00,
2013-09-17 17:55:00,71.9,51.7,29.62,WNW,288,1.0,1.0,49,0.00,,,0.00,Wunderground v.1.15,2013-09-18 00:55:00,
2013-09-17 18:05:00,71.5,51.3,29.62,West,278,1.0,1.0,49,0.00,,,0.00,Wunderground v.1.15,2013-09-18 01:05:00,
2013-09-17 18:15:00,71.2,51.6,29.62,WNW,298,0.0,1.0,50,0.00,,,0.00,Wunderground v.1.15,2013-09-18 01:15:00,
2013-09-17 18:24:00,70.7,51.1,29.62,NNE,15,0.0,0.0,50,0.00,,,0.00,Wunderground v.1.15,2013-09-18 01:24:00,
2013-09-17 18:35:00,70.2,51.2,29.63,East,94,0.0,1.0,51,0.00,,,0.00,Wunderground v.1.15,2013-09-18 01:35:00,
2013-09-17 18:44:00,69.7,50.8,29.63,ESE,102,0.0,0.0,51,0.00,,,0.00,Wunderground v.1.15,2013-09-18 01:44:00,
2013-09-17 18:55:00,69.0,50.1,29.63,ENE,61,1.0,1.0,51,0.00,,,0.00,Wunderground v.1.15,2013-09-18 01:55:00,
2013-09-17 19:05:00,68.4,49.6,29.64,East,92,0.0,0.0,51,0.00,,,0.00,Wunderground v.1.15,2013-09-18 02:05:00,
2013-09-17 19:14:00,67.9,49.6,29.64,North,11,0.0,0.0,52,0.00,,,0.00,Wunderground v.1.15,2013-09-18 02:14:00,
2013-09-17 19:20:00,67.6,49.3,29.64,West,274,0.0,0.0,52,0.00,,,0.00,Wunderground v.1.15,2013-09-18 02:20:00,
2013-09-17 19:29:00,67.2,49.5,29.64,West,269,0.0,0.0,53,0.00,,,0.00,Wunderground v.1.15,2013-09-18 02:29:00,
2013-09-17 19:49:00,66.3,49.2,29.65,SW,223,0.0,1.0,54,0.00,,,0.00,Wunderground v.1.15,2013-09-18 02:49:00,
2013-09-17 19:59:00,65.8,48.7,29.65,SW,224,0.0,0.0,54,0.00,,,0.00,Wunderground v.1.15,2013-09-18 02:59:00,
2013-09-17 20:04:00,65.6,49.0,29.65,ESE,113,0.0,0.0,55,0.00,,,0.00,Wunderground v.1.15,2013-09-18 03:04:00,
2013-09-17 20:14:00,65.1,49.0,29.66,South,177,0.0,0.0,56,0.00,,,0.00,Wunderground v.1.15,2013-09-18 03:14:00,
2013-09-17 20:24:00,64.6,48.5,29.66,ENE,76,0.0,0.0,56,0.00,,,0.00,Wunderground v.1.15,2013-09-18 03:24:00,
2013-09-17 20:34:00,64.1,48.5,29.66,ENE,76,0.0,0.0,57,0.00,,,0.00,Wunderground v.1.15,2013-09-18 03:34:00,
2013-09-17 20:44:00,63.6,48.5,29.67,ENE,76,0.0,0.0,58,0.00,,,0.00,Wunderground v.1.15,2013-09-18 03:44:00,
2013-09-17 20:54:00,63.1,48.5,29.67,ENE,76,0.0,0.0,59,0.00,,,0.00,Wunderground v.1.15,2013-09-18 03:54:00,
2013-09-17 21:04:00,62.8,48.3,29.67,ENE,76,0.0,0.0,59,0.00,,,0.00,Wunderground v.1.15,2013-09-18 04:04:00,
2013-09-17 21:09:00,62.7,48.2,29.67,ENE,76,0.0,0.0,59,0.00,,,0.00,Wunderground v.1.15,2013-09-18 04:09:00,
2013-09-17 21:19:00,62.6,48.1,29.68,ENE,76,0.0,0.0,59,0.00,,,0.00,Wunderground v.1.15,2013-09-18 04:19:00,
2013-09-17 21:24:00,62.4,48.3,29.68,ENE,76,0.0,0.0,60,0.00,,,0.00,Wunderground v.1.15,2013-09-18 04:24:00,
2013-09-17 21:29:00,62.3,48.2,29.69,ENE,76,0.0,0.0,60,0.00,,,0.00,Wunderground v.1.15,2013-09-18 04:29:00,
2013-09-17 21:39:00,62.1,48.0,29.68,ENE,76,0.0,0.0,60,0.00,,,0.00,Wunderground v.1.15,2013-09-18 04:39:00,
2013-09-17 21:49:00,61.8,48.2,29.68,ENE,76,0.0,0.0,61,0.00,,,0.00,Wunderground v.1.15,2013-09-18 04:49:00,
2013-09-17 21:59:00,61.6,48.0,29.68,SSW,209,0.0,0.0,61,0.00,,,0.00,Wunderground v.1.15,2013-09-18 04:59:00,
2013-09-17 22:04:00,61.4,47.8,29.68,SSW,206,0.0,0.0,61,0.00,,,0.00,Wunderground v.1.15,2013-09-18 05:04:00,
2013-09-17 22:09:00,61.3,47.7,29.68,SW,218,0.0,0.0,61,0.00,,,0.00,Wunderground v.1.15,2013-09-18 05:09:00,
2013-09-17 22:14:00,61.1,47.5,29.68,SSW,207,0.0,0.0,61,0.00,,,0.00,Wunderground v.1.15,2013-09-18 05:14:00,
2013-09-17 22:29:00,60.9,47.8,29.69,East,92,0.0,0.0,62,0.00,,,0.00,Wunderground v.1.15,2013-09-18 05:29:00,
2013-09-17 22:39:00,60.9,47.8,29.69,SSW,202,0.0,0.0,62,0.00,,,0.00,Wunderground v.1.15,2013-09-18 05:39:00,
2013-09-17 22:44:00,60.9,47.8,29.69,SSW,211,0.0,0.0,62,0.00,,,0.00,Wunderground v.1.15,2013-09-18 05:44:00,
2013-09-17 22:54:00,60.9,47.8,29.69,SSW,204,0.0,0.0,62,0.00,,,0.00,Wunderground v.1.15,2013-09-18 05:54:00,
2013-09-17 23:04:00,60.7,47.6,29.69,SSW,204,0.0,0.0,62,0.00,,,0.00,Wunderground v.1.15,2013-09-18 06:04:00,
2013-09-17 23:10:00,60.6,47.9,29.69,WSW,250,0.0,0.0,63,0.00,,,0.00,Wunderground v.1.15,2013-09-18 06:10:00,
2013-09-17 23:15:00,60.5,47.4,29.69,SW,236,0.0,0.0,62,0.00,,,0.00,Wunderground v.1.15,2013-09-18 06:15:00,
2013-09-17 23:25:00,60.4,47.7,29.69,NE,36,0.0,1.0,63,0.00,,,0.00,Wunderground v.1.15,2013-09-18 06:25:00,
2013-09-17 23:35:00,60.4,47.7,29.69,NW,304,0.0,0.0,63,0.00,,,0.00,Wunderground v.1.15,2013-09-18 06:35:00,
2013-09-17 23:45:00,60.3,47.6,29.69,NW,304,0.0,0.0,63,0.00,,,0.00,Wunderground v.1.15,2013-09-18 06:45:00,
2013-09-17 23:55:00,60.2,47.6,29.69,SSW,202,0.0,0.0,63,0.00,,,0.00,Wunderground v.1.15,2013-09-18 06:55:00,